Theta_e
312 312 312 312 312 311 310 309 308 307 307 304 301 303 297 297 299 311 310 313 308 301 298 303 301 301 302 307 304 308 308 308 308 307 307 307 307 305 304 304 303 302 303 302 301 302 302 303 300 302 303 305 305 306 306 307 310 303 306 304 305 334 296 296 296 293 299 303 303 306 307 304 304 305 300 299 297 296 295 291 290 290 291 289 288 288 287
312 312 312 312 311 310 310 309 309 308 308 304 303 298 298 298 298 302 311 316 305 298 296 294 294 299 305 304 302 305 304 304 302 304 305 305 304 303 303 306 305 304 305 302 302 305 298 302 302 303 305 304 308 310 311 312 311 306 306 301 305 301 297 294 290 289 290 292 299 300 301 304 300 301 301 299 299 300 297 296 294 293 290 291 287 283 285
312 312 312 311 311 310 309 309 309 309 309 308 300 298 299 298 301 300 305 316 303 299 295 296 296 298 297 298 298 300 301 304 304 304 305 309 304 304 303 305 304 303 303 304 303 306 301 300 302 304 305 304 313 310 312 314 313 323 314 327 307 300 299 292 287 287 286 287 287 287 291 298 301 305 305 303 300 296 297 295 294 288 289 292 287 287 289
312 312 312 311 311 310 309 309 309 309 309 308 302 300 300 301 296 305 307 310 307 304 304 300 301 297 299 298 299 300 298 303 307 306 306 308 306 305 306 305 304 302 301 301 301 302 305 303 301 302 304 303 307 309 311 313 315 332 341 327 315 303 303 293 289 291 290 291 290 296 304 300 299 302 302 302 300 301 298 293 288 290 285 291 285 292 295
312 311 311 311 311 310 309 309 309 309 308 308 302 302 300 302 301 302 297 306 304 305 305 306 305 299 303 294 300 301 301 303 304 306 305 308 306 306 305 305 305 302 302 301 301 304 304 304 304 302 303 305 304 309 311 316 336 340 327 328 305 301 300 301 293 296 297 295 297 303 309 300 300 302 300 300 299 298 298 295 293 292 292 287 287 288 296
311 311 311 311 310 309 309 309 309 308 308 308 305 304 305 297 303 306 306 298 293 300 300 307 306 307 303 297 303 302 302 302 300 303 307 306 306 304 304 305 304 302 302 301 299 302 303 301 302 305 306 305 305 306 308 310 321 319 307 313 304 299 297 300 301 301 301 299 300 305 303 303 302 300 300 300 301 298 298 296 298 296 294 293 293 292 296
311 311 311 311 310 309 309 309 309 308 307 307 303 302 305 306 305 305 308 300 303 304 306 308 307 302 302 301 304 300 301 301 303 303 302 304 303 304 301 302 303 302 303 302 299 301 299 298 303 302 304 304 304 303 307 312 307 305 305 304 306 300 298 300 301 299 299 301 302 301 303 302 302 303 300 299 299 299 299 299 300 299 297 298 300 296 298
310 310 311 311 311 310 310 309 309 308 307 306 306 304 301 300 299 299 305 304 302 303 305 305 302 298 306 298 301 302 302 302 304 306 303 299 301 305 302 301 301 304 303 302 300 302 301 302 302 306 306 304 303 302 303 305 308 305 305 306 306 302 298 311 301 297 299 300 304 303 302 301 299 298 298 298 297 298 299 301 300 302 299 300 299 298 298
310 310 311 311 311 310 310 310 309 307 307 301 301 303 303 303 305 305 300 298 301 307 303 301 300 294 299 298 301 303 303 302 304 304 305 303 302 302 301 302 303 306 305 304 305 306 306 305 304 307 305 302 305 304 304 306 304 306 305 304 305 302 298 300 296 295 293 298 302 301 302 299 299 299 298 300 300 299 299 301 301 299 298 298 299 297 296
310 310 310 310 311 311 310 310 309 307 307 301 299 298 303 303 306 306 303 297 306 299 302 301 297 295 300 302 301 300 302 304 305 300 303 306 305 305 304 304 304 303 303 304 308 308 307 307 307 307 308 308 308 308 307 307 304 302 304 305 301 299 298 298 295 292 291 296 301 299 297 296 296 296 298 300 300 300 301 301 304 304 300 296 295 296 299
310 310 310 310 311 311 312 311 311 308 305 300 298 298 301 298 297 299 302 297 297 300 298 298 298 302 300 301 300 303 303 304 304 299 299 305 307 309 307 305 301 301 304 306 309 309 310 309 308 308 307 306 305 303 308 308 307 306 304 303 304 301 300 296 297 293 290 296 299 298 294 288 289 295 302 304 303 303 300 300 302 302 303 299 298 299 302
310 310 310 310 311 311 312 312 311 308 306 303 300 299 302 302 300 298 297 293 293 300 298 297 298 300 298 300 301 301 300 302 302 305 302 304 307 309 310 307 302 300 306 313 313 312 314 316 313 311 309 308 307 306 305 304 305 313 306 304 301 303 300 297 295 292 293 296 299 294 288 291 299 303 304 304 303 302 302 302 302 303 306 306 307 307 307
309 310 310 310 310 311 311 312 312 310 308 304 300 297 301 303 299 299 298 296 294 297 295 297 301 300 300 301 300 301 302 303 305 307 307 305 305 307 310 307 306 307 313 311 312 311 306 305 304 306 307 305 305 306 306 304 304 304 304 306 304 300 299 299 298 293 293 294 292 286 285 293 301 303 305 307 307 305 303 300 302 304 306 306 306 307 308
310 309 310 310 310 310 311 311 312 311 308 306 301 299 301 301 297 296 296 293 293 296 299 296 297 297 299 299 300 301 302 302 303 306 304 308 306 307 310 312 310 311 312 312 310 304 301 298 297 298 301 298 298 302 306 304 304 304 305 307 307 304 298 298 296 297 292 289 291 294 294 297 300 303 304 304 300 302 301 295 294 305 306 307 306 307 308
311 311 310 310 310 310 311 311 312 311 310 307 303 300 299 301 301 298 298 297 294 297 294 292 295 297 299 299 300 298 298 299 300 300 306 308 307 309 310 312 311 309 311 308 304 302 299 297 295 295 295 295 293 294 300 302 304 304 304 303 305 304 302 297 295 292 292 290 288 288 289 289 290 297 303 306 307 307 305 301 297 304 306 308 309 308 308
310 311 310 309 310 310 310 311 311 311 309 306 304 300 300 303 303 300 298 295 293 286 293 300 301 300 297 298 299 298 296 297 297 299 301 303 305 307 309 309 309 312 310 308 303 300 299 295 293 292 291 292 297 296 295 298 299 302 302 303 303 302 301 299 299 291 293 291 287 285 286 290 295 300 303 303 305 309 305 301 294 299 306 309 311 309 309
310 310 309 309 309 310 310 310 310 310 309 307 302 300 298 303 301 298 295 295 295 291 299 302 302 301 296 295 298 297 298 296 298 296 296 299 302 304 305 307 311 313 309 304 299 297 297 294 294 292 293 298 297 293 298 297 297 297 299 301 301 299 297 298 295 293 292 290 288 287 290 293 298 300 302 304 305 306 302 291 288 299 305 309 310 310 309
310 310 310 309 309 309 310 310 310 311 309 309 304 299 298 302 302 301 299 295 292 292 296 301 298 294 294 296 295 300 301 299 298 299 298 300 302 299 300 303 304 311 311 303 301 294 293 292 293 292 292 298 302 298 291 294 294 291 295 296 295 296 297 295 293 292 294 296 289 288 291 299 302 303 305 306 307 305 294 290 293 302 306 309 310 309 309
310 310 310 310 310 310 310 310 310 310 310 307 304 299 297 301 303 302 297 296 294 288 296 302 302 300 303 305 302 302 302 300 299 294 293 295 299 301 301 303 308 301 306 301 296 295 293 294 296 293 292 295 300 293 294 293 291 296 298 294 294 292 295 294 294 291 291 291 290 291 292 296 300 304 307 308 304 293 291 298 301 307 307 310 311 310 310
310 310 310 310 310 310 310 310 310 310 310 309 304 297 300 303 304 303 298 292 293 292 297 299 300 298 303 300 296 295 297 298 298 295 295 290 299 301 301 299 303 304 303 303 297 300 294 292 293 296 293 291 296 298 295 294 297 297 297 294 293 293 294 289 290 292 291 290 291 288 287 297 306 307 305 308 299 296 299 305 311 310 309 310 310 312 312
310 310 310 310 310 310 309 309 309 310 310 311 306 298 298 301 303 304 304 299 293 291 291 300 304 302 303 301 302 303 300 295 296 293 296 297 299 298 288 295 298 299 299 301 296 297 299 295 296 297 296 295 296 297 289 289 293 297 300 297 298 298 295 290 291 295 288 289 288 289 296 299 306 307 300 303 304 305 308 310 308 312 309 309 309 310 312
310 310 310 310 310 310 309 309 309 309 310 311 306 298 294 299 304 306 306 302 295 293 294 300 303 302 303 304 304 304 303 302 303 302 297 295 297 297 297 299 300 301 305 306 299 298 299 299 301 298 295 298 298 294 293 292 288 291 300 300 293 299 298 295 295 297 295 291 294 298 300 303 306 307 303 307 310 311 311 310 310 309 308 309 310 310 311
310 310 310 310 310 310 309 309 309 310 310 310 306 298 296 300 302 307 303 295 296 299 304 301 301 302 305 306 307 307 306 307 306 304 302 297 294 297 297 298 298 305 309 306 298 298 299 301 296 300 299 298 299 296 294 293 292 294 297 299 298 303 303 301 302 297 302 303 303 304 306 306 307 307 309 309 311 311 310 309 307 308 308 309 309 310 311
310 310 310 310 310 310 309 309 309 310 310 310 308 300 297 299 303 303 301 299 295 291 295 295 295 293 297 299 303 305 305 305 307 306 307 304 294 293 298 302 304 306 304 306 306 298 298 301 300 303 297 300 302 295 293 292 293 295 296 295 298 302 304 301 298 301 298 293 301 303 304 305 306 307 308 310 312 312 311 309 310 309 311 310 311 312 311
310 310 310 310 310 310 310 310 310 309 310 310 308 306 303 298 299 303 298 294 294 292 288 291 293 299 302 304 304 303 305 307 307 305 305 305 302 298 296 301 308 301 299 301 304 302 302 298 296 298 294 300 303 293 298 296 294 300 296 293 295 298 304 298 300 297 294 298 303 305 306 307 308 307 307 308 309 311 311 311 311 312 312 312 311 310 310
310 310 310 310 310 310 310 310 310 310 310 310 309 301 299 298 300 302 302 303 301 298 291 288 292 302 304 301 299 301 304 304 304 304 304 304 306 305 304 304 303 305 303 304 304 301 298 298 299 299 297 296 305 297 296 301 301 303 298 298 301 301 308 297 299 298 298 300 302 303 305 307 307 308 307 308 309 309 309 310 310 310 311 310 311 312 309
310 310 310 310 310 310 310 310 310 310 310 310 306 301 300 301 302 301 298 301 295 288 288 288 293 298 300 298 301 303 304 303 303 303 303 304 303 303 303 302 301 300 300 299 301 301 299 298 296 294 299 298 304 301 301 300 301 300 298 300 301 299 296 300 297 295 294 295 299 301 298 299 304 307 308 309 309 310 309 309 310 310 310 310 311 311 312
309 310 310 310 310 310 310 310 310 310 309 309 306 303 301 299 300 303 304 305 298 290 291 291 291 295 301 297 302 302 303 304 302 302 301 302 301 301 300 300 299 298 297 298 294 296 296 294 293 299 300 301 301 298 302 302 301 299 299 299 301 300 297 298 295 292 292 297 301 302 300 303 304 306 308 309 309 309 309 309 309 309 310 310 311 310 310
310 310 310 310 310 310 310 310 310 310 310 305 300 300 299 300 303 305 306 308 305 299 296 296 297 292 286 291 302 301 303 302 301 300 300 300 301 300 299 299 299 300 300 298 297 296 295 296 298 298 298 304 299 295 297 292 293 292 296 300 301 301 301 301 300 299 300 302 304 304 303 304 305 307 309 309 309 308 308 309 310 311 311 310 310 310 310
309 309 310 310 310 310 310 310 310 310 307 298 298 294 288 297 303 305 305 307 304 303 295 292 287 290 298 299 297 300 301 302 301 301 300 299 299 299 299 298 299 304 301 299 297 294 294 296 298 300 303 306 300 298 294 292 292 295 300 301 302 301 302 304 303 303 302 305 305 306 305 307 309 309 309 309 311 310 309 309 310 311 312 311 310 310 311
309 309 310 310 310 310 310 309 309 309 304 298 293 287 285 286 297 306 307 306 304 300 296 295 290 295 293 298 298 298 299 301 300 300 300 300 299 300 300 299 299 301 297 298 298 295 297 295 297 297 302 303 303 298 294 293 292 295 300 302 303 303 304 304 305 303 305 306 308 307 307 308 308 307 309 310 310 311 312 313 317 320 315 314 312 311 311
309 309 309 309 309 310 309 310 309 309 300 298 293 291 293 297 304 306 307 307 305 300 295 291 290 290 290 294 298 301 301 301 301 302 300 302 298 299 299 298 297 300 299 296 298 295 295 297 298 298 298 306 308 298 298 295 295 297 301 303 305 304 303 303 304 305 308 308 306 305 305 306 306 306 305 308 309 309 312 314 315 317 323 314 312 313 313
308 308 308 309 309 309 309 310 310 307 299 301 305 306 306 306 306 307 307 305 301 295 297 292 288 291 288 291 297 298 302 299 296 297 296 300 298 299 297 300 298 299 312 298 293 293 297 299 298 297 298 303 299 298 296 294 296 301 302 306 304 305 305 305 305 305 307 307 307 303 301 304 306 306 306 307 308 308 309 310 309 309 312 314 314 313 312
308 308 309 309 308 309 309 309 308 306 304 300 296 295 301 305 305 305 306 303 297 298 298 293 289 286 287 296 288 293 301 294 294 296 293 299 300 298 294 299 299 295 298 295 294 297 299 301 298 296 299 298 300 297 292 296 300 300 301 302 303 304 304 303 304 305 305 306 306 305 304 306 307 307 308 308 308 309 310 307 309 309 308 309 309 310 311
308 308 308 308 308 309 308 307 301 302 298 297 297 299 302 306 306 307 307 300 291 289 290 293 294 287 285 286 286 290 299 297 294 296 294 297 303 296 296 295 295 293 294 301 297 295 295 297 299 296 293 296 296 293 295 298 299 299 299 301 303 304 304 304 303 304 305 305 307 306 307 308 309 307 307 307 308 308 309 309 310 311 310 309 310 310 311
307 308 307 308 307 307 305 305 302 300 297 295 296 305 309 310 312 306 303 302 295 290 291 292 293 288 287 281 282 290 302 295 297 297 297 300 299 302 300 295 290 294 300 297 291 294 294 300 299 293 295 293 293 296 297 299 298 299 299 300 302 303 303 304 304 305 306 307 307 308 308 307 308 306 306 307 308 308 310 310 309 310 309 308 308 309 310
307 307 308 308 306 304 298 297 301 300 296 300 304 308 309 309 310 306 302 300 301 301 293 289 287 288 290 288 291 294 296 287 294 291 295 295 294 300 297 294 290 295 295 293 294 293 296 304 297 293 293 292 296 299 300 301 301 301 301 302 304 304 304 303 305 306 307 308 308 307 307 307 306 306 307 307 307 308 308 308 308 307 307 308 310 310 309
307 307 305 301 298 294 292 293 295 300 308 307 307 302 298 301 292 296 297 293 298 300 294 292 286 288 292 288 285 294 293 287 293 288 290 296 293 291 299 296 295 299 289 290 294 300 298 297 295 293 295 299 301 302 302 302 303 304 304 304 305 305 305 303 309 307 306 304 304 305 306 305 305 305 307 306 307 307 307 308 307 307 309 310 310 311 310
305 303 302 301 295 291 291 294 303 309 305 306 304 296 293 296 290 290 292 294 296 292 296 291 286 289 288 287 289 295 292 289 287 288 285 292 292 289 297 289 295 295 284 289 292 301 292 290 293 293 294 297 298 300 302 303 304 305 306 306 306 306 306 306 310 309 307 307 307 308 307 306 305 305 306 306 306 307 307 307 307 308 309 310 310 310 309
301 297 296 295 293 294 305 306 311 306 303 295 296 294 290 295 288 285 296 289 288 292 294 288 294 291 291 289 288 287 297 290 286 284 287 290 299 289 294 292 293 293 282 286 291 299 292 287 290 291 292 296 296 298 301 303 304 305 305 305 306 306 305 307 310 310 310 310 311 310 309 310 309 308 307 307 307 306 306 306 307 307 308 308 311 308 306
299 299 297 294 296 298 302 306 306 303 298 293 292 294 291 287 291 292 290 285 284 287 295 291 292 290 293 293 291 288 295 299 295 295 295 289 299 299 291 288 296 289 286 285 294 296 295 291 290 290 292 295 297 300 301 302 303 305 305 306 306 306 305 306 309 310 309 309 309 308 308 310 309 308 309 308 307 306 306 306 307 308 310 312 311 307 307
301 301 301 303 303 303 301 301 301 296 294 295 289 284 287 289 293 290 288 280 281 287 289 291 288 289 290 293 292 293 292 297 297 300 296 290 297 294 290 293 295 289 283 291 299 295 292 287 287 290 293 297 300 303 304 303 303 304 304 305 306 306 306 306 308 309 310 309 309 309 309 308 308 308 308 308 307 306 306 307 307 309 308 307 309 307 307
305 305 305 301 299 296 296 288 293 293 284 282 281 281 286 281 281 280 283 289 294 289 288 297 294 296 298 300 295 296 295 302 297 295 292 288 294 296 293 289 288 283 290 298 295 290 287 286 287 291 294 297 303 307 307 308 307 306 306 307 306 307 308 308 309 308 309 310 309 309 309 309 308 308 309 309 309 308 309 309 310 308 308 308 307 308 307
304 303 299 297 292 292 293 281 294 290 286 286 281 277 281 280 281 285 284 283 287 288 289 289 291 291 289 299 295 294 297 297 301 296 295 297 292 288 291 287 288 292 297 293 291 286 288 291 293 294 297 303 308 307 307 307 307 308 307 307 308 308 308 308 309 308 308 309 309 309 309 309 308 309 309 308 309 307 307 307 310 309 309 308 307 307 307
296 291 289 288 286 289 288 282 291 286 281 284 286 283 283 278 280 281 283 288 290 288 295 296 295 294 294 298 297 297 296 290 299 292 286 294 290 291 289 287 293 293 291 286 287 287 288 290 294 298 301 304 306 307 307 307 308 308 306 308 308 308 308 308 307 308 308 308 308 309 308 308 308 307 307 307 308 309 308 308 310 309 307 307 307 308 308
292 288 287 284 283 285 285 283 285 282 285 287 285 284 284 283 283 285 290 296 293 295 294 297 297 298 295 297 291 290 295 294 291 292 295 293 288 285 292 298 296 287 286 286 285 284 287 290 294 298 302 303 306 307 307 308 310 310 308 307 309 309 310 309 309 308 308 308 308 308 309 309 308 309 308 308 309 308 308 308 308 307 307 307 307 308 306
291 295 289 287 284 286 289 283 284 285 287 287 288 289 289 290 291 291 293 298 295 296 297 299 298 297 293 293 293 293 295 296 291 294 296 287 286 289 297 291 285 287 284 283 284 285 288 292 297 300 302 305 306 308 308 309 310 310 309 310 310 311 311 311 310 308 308 309 308 308 308 309 309 310 310 309 308 308 311 309 308 308 308 307 308 308 307
286 292 289 283 282 285 283 284 288 288 290 291 289 290 292 293 292 291 299 301 300 299 298 297 294 295 294 300 298 291 292 294 290 290 295 293 295 291 286 288 288 289 288 286 287 291 292 296 299 301 304 307 307 307 309 310 311 311 311 311 311 311 312 311 311 311 311 308 308 308 308 309 310 310 310 310 311 310 310 310 309 309 309 308 308 308 307
293 287 284 280 283 284 284 289 287 284 286 287 290 290 290 290 291 294 298 298 296 296 297 295 296 295 290 295 294 293 289 296 288 286 294 291 286 285 285 284 286 285 291 293 292 295 299 303 306 307 309 310 308 309 310 310 311 311 312 311 312 312 312 312 312 311 312 310 309 310 310 311 311 312 312 311 310 309 307 309 308 308 308 309 308 308 308
287 285 287 282 283 284 287 289 286 283 285 287 289 289 291 290 291 293 297 296 297 297 298 296 300 292 290 293 286 287 287 293 292 291 291 288 289 291 289 285 288 288 292 296 297 301 305 307 307 306 307 308 310 309 309 309 312 312 312 312 311 311 311 312 311 310 310 308 310 310 311 311 310 310 309 309 309 309 309 308 308 308 307 308 309 309 309
290 285 284 287 284 282 285 283 282 281 282 284 286 287 289 290 291 292 298 297 295 294 293 289 290 290 288 289 287 284 285 297 293 289 289 289 294 293 289 287 291 295 297 300 302 304 306 307 306 304 305 306 307 307 309 310 310 310 310 310 311 311 311 311 310 309 308 309 310 315 309 308 308 308 309 310 310 310 310 310 309 307 308 307 308 309 309
285 283 283 287 290 290 289 288 288 287 288 288 288 289 292 291 293 294 299 297 294 291 289 294 293 288 287 285 288 293 297 293 289 292 289 293 298 292 291 293 295 298 301 302 303 306 307 308 308 308 308 309 309 309 311 311 310 310 310 310 310 308 308 307 307 308 307 307 307 306 306 308 309 310 311 310 309 308 306 306 308 307 308 306 306 306 307
Wind_Speed
20 22 22 21 21 22 23 24 24 24 25 14 11 6 4 4 6 8 9 7 2 4 1 2 1 1 3 2 3 3 3 3 3 3 3 2 1 0 0 1 1 2 0 1 0 2 0 1 0 1 1 2 3 5 6 4 5 5 1 2 1 5 3 4 2 4 6 5 4 4 4 3 2 2 3 4 2 5 8 6 5 5 2 0 1 1 6
20 21 21 20 20 21 22 23 23 22 21 9 8 3 1 2 5 9 5 6 2 3 2 2 2 3 4 0 4 3 3 2 4 3 3 1 2 1 0 1 2 0 1 1 1 1 0 1 2 1 0 0 2 5 5 4 1 2 5 5 3 2 2 7 3 2 3 6 4 2 4 4 1 1 1 2 3 5 3 6 1 1 6 7 7 4 4
19 20 21 19 19 20 21 22 22 22 20 12 2 2 3 4 4 5 9 7 3 1 2 1 1 1 3 3 5 5 2 5 8 5 4 2 2 0 1 2 1 1 0 0 0 1 3 1 2 1 1 1 1 6 4 7 4 1 3 5 5 4 3 5 5 6 5 3 2 5 4 5 1 0 0 1 5 6 2 1 1 3 2 4 2 4 9
19 21 20 19 19 20 21 22 22 23 22 14 1 1 2 4 3 4 5 6 7 4 1 3 2 1 4 4 5 1 2 4 4 6 5 6 4 3 1 2 1 2 3 2 3 2 0 1 1 1 0 1 1 1 8 5 3 4 8 4 5 3 2 3 6 8 9 10 5 3 2 3 1 1 1 1 2 3 5 5 5 6 4 5 6 5 3
19 19 18 18 19 20 21 21 23 24 23 14 3 1 1 1 2 3 6 7 5 2 3 5 4 2 2 0 2 2 2 3 4 3 1 1 2 0 1 2 1 1 1 0 1 0 2 2 0 1 2 1 2 6 7 5 6 6 5 4 5 3 2 0 5 4 7 8 5 4 4 3 2 1 3 1 5 5 6 5 6 5 7 5 4 7 4
18 19 19 18 18 19 20 21 23 25 25 11 3 1 0 2 1 2 1 1 2 5 5 9 7 4 1 3 1 3 5 5 4 6 1 3 1 1 1 1 0 4 4 3 1 1 0 2 1 1 0 1 3 2 7 3 5 4 2 3 4 4 2 3 2 2 2 3 4 1 0 2 3 3 2 4 2 6 5 5 5 7 6 9 6 5 5
18 18 20 19 17 18 19 21 22 25 27 10 3 3 4 1 1 0 3 1 2 1 7 8 5 6 4 2 5 5 6 6 3 1 5 4 3 2 0 1 3 2 1 3 2 1 1 2 2 1 0 1 1 1 1 1 6 3 2 3 1 4 0 3 1 1 0 2 3 1 2 0 0 1 2 4 4 5 6 6 5 10 7 8 9 7 11
18 18 18 18 16 17 18 20 21 24 25 9 3 7 2 4 3 4 4 2 4 4 3 3 3 3 6 3 4 3 4 9 12 5 1 3 3 1 1 3 4 1 4 2 2 3 3 3 0 2 2 0 0 1 3 2 2 3 1 1 2 3 2 3 1 1 2 2 3 2 3 4 1 3 3 3 3 3 4 2 2 4 5 6 4 2 7
17 18 17 17 16 16 17 18 20 22 20 7 7 3 5 3 2 2 3 5 5 3 3 4 3 2 5 5 5 4 6 7 8 7 2 2 3 5 4 4 2 3 3 5 3 3 3 5 5 4 5 5 6 5 3 4 3 2 1 2 1 3 1 2 2 2 3 2 1 1 2 2 1 4 4 5 5 4 2 1 3 3 5 3 0 2 6
16 17 17 18 15 16 16 16 18 18 15 5 3 4 5 3 2 3 1 1 2 3 3 3 2 2 2 4 4 3 7 7 10 5 4 5 4 7 6 4 5 3 5 3 0 3 3 5 4 4 5 2 1 2 4 9 8 4 3 0 4 3 5 3 2 3 3 2 0 2 4 6 8 8 6 4 2 3 3 3 3 7 5 4 4 8 7
16 16 16 16 16 16 15 15 16 16 11 8 5 3 5 6 5 5 2 1 3 4 2 3 4 1 5 7 8 5 5 7 7 3 4 5 9 12 8 6 5 3 2 3 9 7 8 4 1 3 6 3 5 3 3 5 3 6 7 3 1 3 5 3 2 3 2 1 1 1 2 3 6 3 5 2 2 3 4 7 7 4 4 5 4 7 3
15 15 15 16 15 16 14 15 14 13 9 4 1 2 3 2 2 2 2 1 3 3 2 1 3 3 6 9 6 6 8 8 8 3 5 3 8 9 10 10 5 2 3 10 12 9 3 1 2 1 6 8 6 7 8 4 2 1 4 8 4 5 3 4 3 3 2 1 0 1 5 9 7 4 4 4 5 4 7 8 6 5 3 1 1 1 5
13 14 14 14 15 14 14 14 13 12 11 6 4 3 3 3 2 0 0 1 1 3 5 4 3 5 5 7 7 6 7 6 8 8 6 4 5 6 4 4 3 4 11 14 13 4 2 1 1 0 2 7 4 6 7 6 1 3 3 4 9 6 6 3 1 3 2 2 2 1 7 5 5 9 7 5 4 1 0 4 3 4 4 5 4 7 5
12 13 13 14 14 14 15 14 11 11 12 9 7 4 4 3 3 3 1 2 2 2 2 4 5 8 10 8 7 9 5 8 9 1 4 2 5 6 5 3 5 10 10 7 2 2 2 4 1 1 2 6 3 1 1 3 4 2 1 1 2 10 4 4 3 1 4 4 6 9 3 6 3 3 4 2 4 2 2 5 5 2 2 5 4 4 3
12 12 12 13 13 14 13 13 10 11 11 9 4 4 3 4 3 0 2 0 1 2 2 1 5 6 7 5 7 8 5 5 9 6 2 4 1 4 6 11 13 11 7 1 2 5 2 2 1 2 2 1 2 4 3 0 2 4 6 5 5 6 6 3 3 3 4 4 2 3 2 6 6 8 7 2 2 2 3 4 4 4 3 5 6 8 6
11 11 11 12 13 13 13 13 11 10 10 10 5 4 4 2 3 2 0 1 1 2 1 3 5 5 4 2 5 5 5 5 4 5 6 3 3 12 7 11 14 10 4 4 2 3 1 1 2 3 2 3 2 1 1 2 2 2 4 4 6 5 5 6 7 3 3 1 3 4 5 7 8 9 9 6 2 3 5 1 5 3 2 5 8 7 5
10 10 10 11 11 12 12 13 12 10 8 10 6 5 3 3 4 3 1 1 1 3 1 4 4 2 2 4 5 3 5 4 5 4 6 8 7 8 13 15 10 6 10 2 3 2 1 3 1 1 1 1 1 2 0 1 0 2 3 6 7 4 1 3 2 1 3 5 3 6 4 4 5 10 5 3 4 7 3 4 6 4 2 4 8 9 9
10 10 10 10 10 10 11 11 12 11 10 9 6 3 3 3 4 3 1 1 1 3 2 4 6 4 3 0 2 4 2 3 4 1 1 4 3 6 10 10 11 7 6 2 2 3 2 2 2 1 2 3 1 3 2 3 1 2 1 1 2 1 0 2 7 6 5 8 4 2 4 5 5 4 7 3 2 3 2 9 5 3 3 4 7 6 5
10 9 9 10 10 10 10 10 11 13 11 9 7 3 1 2 5 4 1 1 1 2 3 4 1 1 1 2 1 1 1 2 2 1 5 4 1 8 11 7 2 6 8 2 3 2 2 2 0 2 3 2 0 3 2 1 3 1 0 3 2 2 1 1 1 2 5 5 5 8 3 6 6 4 3 3 4 1 7 9 3 6 4 4 8 9 7
10 9 9 9 9 9 9 9 9 10 12 9 6 1 6 4 3 4 4 1 1 3 6 5 1 2 1 1 2 2 5 4 2 2 1 2 5 13 3 1 4 4 6 3 5 1 3 1 1 1 0 2 3 3 1 3 1 3 1 2 3 6 3 3 3 2 2 1 2 3 4 3 7 7 2 1 3 8 7 3 0 1 6 7 5 8 8
10 9 9 8 8 9 8 9 9 8 10 9 5 3 5 2 3 3 1 1 1 3 5 2 1 1 0 2 2 1 0 4 3 2 2 2 5 3 2 1 4 3 2 2 2 2 1 2 3 2 2 2 3 0 3 1 3 4 4 5 4 3 2 2 3 5 4 4 4 5 10 8 8 10 8 5 6 5 8 8 5 1 4 7 7 5 8
10 9 9 8 8 8 8 8 8 8 8 7 5 1 1 4 4 4 5 2 3 5 5 3 2 5 9 7 7 7 8 9 9 4 4 4 3 0 2 3 2 1 2 1 3 3 3 1 1 2 3 4 3 2 1 1 2 3 1 2 4 5 6 8 7 4 5 6 7 8 4 2 2 1 2 6 5 9 9 8 9 7 5 3 7 8 5
10 10 9 8 8 8 7 8 8 6 6 6 4 2 2 6 7 7 5 2 3 3 3 5 3 4 3 5 7 8 8 8 7 4 4 3 3 2 3 2 3 3 2 2 3 1 1 0 3 2 2 2 1 5 2 2 2 2 1 3 3 1 3 3 0 5 2 1 2 4 3 2 3 1 1 2 5 3 4 7 5 4 4 7 7 6 6
11 10 9 9 8 8 7 8 7 7 5 4 2 1 3 3 5 6 4 1 2 6 5 1 3 1 1 4 5 3 3 4 5 4 3 5 2 4 3 3 3 2 1 1 1 3 2 1 4 1 1 4 3 1 1 3 2 1 2 3 1 3 1 1 1 2 2 3 7 6 2 2 3 3 5 6 5 2 2 2 2 3 3 3 1 6 5
11 10 10 9 8 7 7 8 7 6 4 4 4 2 1 2 2 5 4 4 4 4 2 7 3 6 2 4 5 3 1 3 4 4 3 5 7 5 5 5 1 2 8 8 2 2 1 1 3 1 1 5 0 4 2 0 6 4 6 6 4 5 0 1 0 1 2 1 1 2 2 1 1 1 6 5 6 6 4 4 5 6 4 4 4 5 5
11 11 10 10 9 8 8 7 7 7 5 5 5 2 1 3 2 3 1 1 2 2 4 3 7 6 6 10 5 3 8 9 7 6 5 6 8 10 10 5 6 4 4 4 3 3 2 1 2 2 1 5 0 0 2 0 7 7 4 9 8 5 4 2 0 2 1 1 3 4 4 9 6 4 4 5 8 8 5 6 7 7 9 6 5 4 3
11 11 11 10 9 8 8 7 7 7 5 4 2 1 2 4 3 2 1 2 4 3 1 4 5 8 8 12 10 6 5 4 4 4 4 4 3 2 2 3 5 6 5 5 2 3 2 3 2 4 4 5 2 3 4 6 3 5 5 7 4 3 4 1 2 2 0 3 4 2 3 1 1 1 7 6 5 9 7 5 6 7 7 6 7 4 3
11 11 11 10 9 8 8 7 7 5 4 4 4 4 3 3 2 3 2 1 2 3 4 5 7 12 10 11 3 4 8 6 5 5 4 6 6 4 3 3 3 2 2 0 3 1 2 3 5 3 2 3 2 5 2 4 1 3 6 7 5 4 4 3 3 4 2 5 7 5 3 6 5 6 4 3 4 8 9 8 7 5 5 7 9 6 4
11 11 11 10 9 8 7 7 7 6 4 4 4 5 3 1 1 3 3 2 2 3 4 6 6 3 1 7 10 8 4 3 5 5 6 6 6 4 4 4 4 3 2 2 3 3 3 4 2 3 1 2 1 4 2 3 2 6 7 7 6 3 3 4 4 3 3 5 5 6 4 5 4 6 4 4 3 6 7 6 6 7 6 6 7 7 9
11 11 10 10 9 8 7 7 6 6 2 3 2 2 2 2 3 4 3 5 2 1 3 5 5 4 4 4 6 6 8 6 4 5 6 5 4 5 5 4 3 5 4 3 3 3 3 3 2 2 3 1 2 2 3 2 5 8 4 5 7 6 4 7 4 5 3 3 5 6 3 2 3 4 3 3 4 6 8 7 7 7 5 7 8 6 6
11 11 10 10 9 7 6 6 7 1 6 3 2 2 2 1 1 1 7 6 5 1 2 1 6 5 6 3 4 7 12 12 6 5 6 6 6 5 4 4 3 4 2 2 2 5 2 3 1 2 2 5 4 2 3 3 7 5 7 4 4 7 8 9 6 6 3 3 4 3 2 1 3 3 1 3 5 4 5 4 5 7 9 7 9 10 8
10 11 10 9 9 7 6 6 4 1 4 2 2 2 1 1 1 4 7 5 5 2 2 5 5 2 3 3 3 5 7 8 3 2 2 1 3 2 2 5 4 6 5 4 3 1 3 3 3 3 4 3 3 3 3 5 10 13 7 6 3 6 6 7 6 3 2 4 7 7 4 0 2 9 7 8 7 4 7 7 5 5 7 6 4 4 6
10 10 9 8 8 7 6 4 3 2 2 4 7 9 11 14 14 11 2 3 1 0 1 1 2 3 3 6 8 7 3 3 3 4 5 1 2 0 1 1 2 1 4 2 2 2 4 4 4 5 6 4 3 3 7 10 14 10 6 6 4 4 8 9 5 3 1 5 6 7 6 9 10 10 2 3 2 2 4 6 4 4 5 7 7 5 4
9 9 8 8 6 5 4 1 4 6 4 2 4 4 4 7 7 7 1 1 1 2 0 0 2 3 6 5 5 6 4 5 4 5 5 3 1 1 3 0 2 2 2 5 4 3 2 0 3 3 0 3 3 4 8 14 13 10 8 7 8 10 7 6 6 7 5 6 5 2 5 4 4 6 5 5 4 3 4 4 5 8 6 6 4 3 3
8 8 8 7 6 5 4 3 3 1 1 2 4 6 4 7 8 4 3 2 2 1 0 1 1 3 5 4 1 6 4 3 4 4 2 5 0 2 1 0 1 1 4 1 1 3 3 4 5 2 7 3 3 7 10 11 5 4 5 6 7 9 11 11 6 8 8 5 4 1 4 9 11 8 7 5 6 5 7 4 4 9 8 5 4 2 2
8 7 7 7 5 2 0 1 1 0 2 3 5 5 6 6 5 3 5 2 2 1 0 1 1 3 2 4 5 4 4 2 2 3 2 3 5 2 1 1 1 5 2 3 3 2 3 2 2 7 3 4 10 10 8 2 5 5 5 8 8 9 9 12 10 6 3 3 7 7 6 5 11 8 6 6 6 5 7 7 4 7 9 7 4 3 3
7 7 6 7 4 3 0 1 1 3 5 4 3 6 10 6 1 4 2 0 0 0 1 1 1 4 2 4 2 4 3 4 5 5 4 3 2 3 2 2 2 2 3 2 1 3 6 3 4 6 5 9 13 5 6 8 8 9 8 8 8 8 9 10 7 4 3 3 6 6 8 10 7 6 7 7 7 7 9 9 8 9 9 8 6 4 4
8 10 7 4 3 2 1 2 4 4 6 7 4 3 2 2 1 0 1 0 2 2 1 1 3 2 0 1 5 4 3 3 4 4 5 2 3 3 1 0 2 2 3 2 4 5 1 1 3 7 11 12 13 11 9 7 9 10 11 11 11 10 10 8 5 8 6 4 2 4 4 6 7 5 10 8 7 7 7 6 5 5 6 6 5 5 5
9 6 4 2 3 3 3 3 3 5 4 2 1 0 0 0 1 0 2 1 1 2 2 4 4 3 3 4 7 1 1 2 4 1 1 4 2 4 2 2 3 1 2 2 5 2 1 2 3 4 11 8 6 5 5 10 11 11 12 12 12 11 10 5 10 12 13 12 15 15 16 12 12 9 5 8 4 4 5 6 6 4 5 5 5 4 4
5 6 4 4 4 4 1 3 8 2 1 1 1 1 1 1 2 1 1 1 1 1 2 5 3 4 8 9 5 5 1 3 2 2 3 6 1 1 1 1 3 0 2 1 6 2 0 3 2 2 10 2 3 4 5 8 10 10 10 11 12 12 11 9 10 12 11 11 14 15 10 13 14 15 12 11 11 9 6 5 5 5 6 6 6 6 5
3 2 3 3 2 1 1 1 2 2 0 1 1 0 0 1 2 1 1 2 2 3 3 3 2 2 3 3 2 6 4 1 2 2 1 2 2 1 1 1 1 0 2 2 4 1 1 2 3 7 8 2 7 8 10 9 9 10 11 11 11 12 12 10 12 12 5 2 4 5 5 7 9 10 10 11 10 10 9 8 7 6 6 6 5 5 4
2 2 2 2 2 2 2 1 1 0 1 0 2 1 2 2 0 0 1 2 4 2 2 2 2 3 4 9 6 3 3 3 1 0 0 1 2 1 2 1 1 2 3 3 1 1 1 3 3 6 2 5 7 7 9 11 12 12 12 12 12 11 9 8 9 5 6 8 7 8 6 8 8 8 8 9 8 8 8 6 6 5 6 4 4 4 4
4 3 3 3 2 1 1 1 1 1 2 0 2 1 1 1 2 3 1 1 1 1 2 2 2 1 0 2 2 3 2 0 1 1 1 2 2 1 0 1 0 1 5 2 0 1 3 4 6 6 3 7 6 5 5 7 10 10 11 10 9 8 8 9 9 8 7 10 11 11 10 9 8 7 5 7 7 6 4 4 7 7 6 6 5 4 4
1 1 3 1 2 2 1 3 1 2 1 1 3 3 2 1 2 1 0 2 1 1 2 4 2 3 3 1 1 0 1 0 0 1 1 1 1 1 0 2 4 5 2 1 1 5 6 4 6 7 7 5 5 4 5 7 9 10 7 9 3 5 6 7 10 11 9 8 9 10 9 8 7 5 4 5 8 9 7 5 5 7 6 6 6 5 4
3 2 1 1 0 1 2 2 1 1 3 4 3 2 3 4 4 4 5 4 2 2 0 1 1 1 1 0 1 0 1 1 0 1 2 1 2 1 2 3 2 1 1 3 2 4 2 5 5 5 4 4 4 5 4 5 8 10 6 6 11 9 4 10 10 11 10 10 11 11 10 9 8 7 6 6 5 7 10 8 6 6 5 6 6 5 3
3 2 2 2 2 1 1 1 2 1 2 2 4 5 3 4 4 4 5 2 1 1 2 3 2 1 0 0 1 1 1 2 1 2 1 0 0 4 3 1 0 1 2 2 3 5 8 7 5 5 5 3 3 3 3 4 8 11 11 3 7 10 15 9 4 12 12 12 10 11 10 9 9 9 7 5 5 5 5 6 5 7 6 7 6 5 3
1 1 0 1 1 1 1 2 4 4 3 3 5 6 7 6 5 3 1 1 0 3 2 2 2 2 1 1 1 2 0 0 1 2 1 1 3 2 0 0 3 2 3 5 6 6 6 7 8 7 3 1 3 3 2 5 6 6 12 6 8 10 9 11 15 4 5 8 9 9 7 7 6 7 7 7 4 4 4 4 4 4 6 6 5 5 5
2 1 2 1 2 3 5 4 2 2 3 2 3 4 5 1 1 3 1 0 1 1 2 1 0 0 1 1 1 2 2 1 1 2 2 2 1 2 1 3 4 2 3 4 7 4 6 6 5 5 1 2 1 0 3 3 4 4 9 7 5 8 9 6 6 11 11 5 8 7 7 6 7 7 7 7 6 3 3 4 4 5 6 6 5 5 6
1 2 2 2 2 2 2 2 3 3 5 4 2 1 1 3 5 4 3 0 2 3 2 1 1 1 1 1 2 2 2 2 3 2 1 2 2 2 3 4 5 6 6 6 8 6 4 4 6 5 1 3 1 1 2 3 2 2 4 5 3 2 2 3 2 3 5 2 7 7 6 5 6 7 6 6 6 4 3 4 5 4 4 6 6 6 5
1 2 1 0 1 3 1 1 2 2 4 2 1 2 2 3 3 4 2 2 1 1 1 1 1 1 1 0 1 1 2 1 2 1 3 5 4 3 3 6 5 4 2 2 3 3 4 5 5 1 4 4 4 1 2 4 5 3 4 3 3 2 3 3 1 2 5 0 4 6 6 6 6 6 7 7 5 5 5 5 4 5 4 4 6 6 6
0 1 3 3 4 3 2 3 4 3 2 3 2 2 2 3 3 2 2 3 2 2 2 2 1 1 0 1 1 2 2 2 3 4 4 4 2 4 4 6 5 4 7 4 2 1 3 5 4 0 3 3 3 2 2 2 2 1 3 5 3 4 3 4 2 3 4 2 4 6 6 5 4 5 5 6 7 6 6 5 3 4 4 4 4 5 5
1 0 3 3 4 5 4 2 1 3 5 5 4 4 2 3 3 2 2 5 4 2 3 2 2 2 1 3 3 2 0 2 3 3 5 4 2 3 5 5 6 4 4 4 3 2 2 5 3 2 2 3 2 2 2 3 4 3 4 4 4 3 1 1 5 4 2 3 3 3 3 4 4 5 5 6 6 6 6 4 3 3 4 4 4 4 5
Wind_Direction
343 345 347 346 346 346 345 344 346 348 352 7 347 327 6 39 243 281 321 327 21 71 59 306 8 237 233 274 284 256 267 241 272 323 297 317 169 39 48 200 146 252 189 207 167 159 5 170 167 227 194 239 218 259 297 142 46 75 158 63 210 98 76 67 320 322 308 325 326 25 49 99 87 26 65 106 155 177 171 177 183 153 152 29 329 221 253
343 343 346 345 346 346 344 342 344 346 2 353 317 15 26 256 276 312 296 341 40 86 197 272 279 278 310 296 256 256 252 255 293 250 272 184 319 155 245 355 140 195 60 115 274 182 340 273 113 29 170 14 261 328 234 128 78 85 208 131 227 86 296 113 82 23 341 346 345 359 335 50 103 186 233 134 98 74 126 106 111 126 217 173 131 232 280
342 342 345 347 347 346 343 341 340 344 346 356 19 348 301 284 253 236 296 338 36 149 200 149 230 303 310 316 318 316 312 211 213 222 260 251 219 128 270 201 191 63 142 328 330 236 166 273 312 100 154 223 336 316 90 117 100 246 170 136 123 88 169 106 133 156 171 190 206 245 253 226 252 270 102 193 115 133 120 162 102 171 280 122 153 252 252
343 343 346 346 346 345 342 339 340 340 341 348 172 266 346 8 15 303 328 360 6 58 31 82 35 32 1 351 277 235 268 312 265 200 264 230 231 202 170 347 82 71 43 20 2 335 50 77 251 98 221 295 316 347 328 49 119 125 104 98 77 120 104 97 150 156 185 202 206 248 128 72 161 253 134 215 66 84 89 104 103 204 212 180 233 196 291
342 343 345 346 348 345 341 341 340 339 339 350 148 192 168 258 46 353 332 331 27 23 8 27 28 7 318 281 281 308 269 274 297 180 253 14 189 354 168 194 143 278 85 199 326 199 308 335 94 213 165 272 269 337 50 21 29 72 67 24 83 69 74 301 134 171 196 184 184 192 197 166 231 175 281 177 150 168 140 156 225 170 103 272 266 201 188
342 345 347 348 349 344 343 343 343 340 339 355 171 28 260 37 281 60 156 142 288 6 336 5 328 308 300 246 331 321 336 347 353 319 313 306 342 163 329 60 102 176 182 145 140 327 28 7 276 348 50 76 357 26 354 38 312 11 42 17 111 133 146 207 120 232 240 199 216 203 144 179 188 194 211 280 225 148 189 224 203 142 192 222 246 182 203
343 347 348 349 350 344 345 346 346 345 338 352 154 52 313 97 329 316 337 114 283 227 274 310 295 314 348 264 32 359 11 348 322 258 313 0 337 57 313 320 327 311 276 118 181 172 106 319 300 199 302 112 90 70 359 330 359 63 49 26 107 94 271 193 153 133 353 236 244 263 132 20 321 216 235 239 260 241 198 221 187 185 214 217 229 189 217
343 347 347 348 348 346 349 348 351 350 342 337 88 48 23 17 21 332 348 302 283 279 296 282 1 46 7 41 355 330 1 350 340 319 288 339 315 344 93 286 322 190 158 127 101 217 175 175 201 252 135 21 41 207 186 179 339 46 70 81 349 106 260 139 63 106 269 284 327 48 105 114 308 265 248 255 240 274 249 205 225 181 272 280 266 213 263
343 346 348 349 349 352 351 352 355 358 351 38 28 65 36 302 287 319 338 336 301 319 358 346 8 51 350 32 336 335 3 351 333 278 255 310 326 344 322 277 332 48 84 99 134 210 194 194 199 199 156 170 222 140 259 142 128 43 57 54 342 68 227 44 69 154 299 305 88 147 161 144 185 279 303 294 299 308 295 294 212 148 229 256 200 249 261
342 345 347 350 351 353 353 356 1 5 2 57 4 18 331 304 295 335 229 264 346 26 319 312 48 25 345 355 334 329 338 335 332 324 307 349 343 346 298 276 103 26 56 63 24 296 217 214 220 216 207 191 208 192 187 159 151 175 120 156 127 147 129 139 121 139 265 262 281 80 30 24 339 299 258 203 205 231 271 267 197 217 168 142 194 239 221
342 345 346 350 353 354 356 1 4 12 15 29 5 335 345 15 342 346 348 351 323 10 11 10 66 60 332 351 328 332 336 337 351 47 292 348 345 354 13 44 103 111 77 314 302 279 264 234 197 72 79 66 77 36 96 84 115 149 144 98 99 110 124 160 151 151 244 294 313 39 45 291 243 232 182 153 261 272 285 287 275 265 160 210 203 227 199
341 343 345 349 352 352 357 360 5 16 31 2 246 263 256 312 289 197 1 83 261 339 63 80 54 316 343 330 328 339 337 337 322 314 267 299 297 329 11 27 55 51 325 328 325 313 253 14 13 6 46 22 47 46 53 84 35 52 141 137 161 137 107 151 152 113 213 252 4 326 248 239 240 263 233 233 230 213 230 254 262 260 231 210 235 183 171
340 339 343 347 349 353 353 358 3 11 18 6 33 344 289 300 208 342 99 109 260 330 351 313 336 319 311 327 352 337 324 300 305 294 249 280 310 343 23 33 12 282 326 316 323 358 109 259 6 52 316 355 5 36 44 29 9 360 29 121 130 160 138 149 79 127 84 68 86 200 240 237 286 285 273 226 198 204 7 307 287 258 224 171 217 222 206
336 338 341 343 346 350 353 355 1 10 14 14 1 329 302 334 19 20 33 83 292 246 268 309 340 348 350 343 346 322 314 344 330 288 357 330 301 338 323 3 311 294 296 289 343 75 39 37 34 28 313 9 6 1 278 294 222 187 164 227 106 147 110 131 183 174 185 202 172 226 303 330 316 318 303 238 250 248 227 266 278 234 198 172 197 206 197
333 337 338 342 343 346 351 351 3 7 11 11 356 325 339 336 3 295 281 102 234 305 39 76 314 314 323 327 355 350 8 344 3 336 328 297 316 345 295 316 317 310 293 230 34 39 127 108 36 90 340 71 202 233 323 270 298 195 188 177 128 147 159 234 154 255 124 137 277 332 306 256 276 243 255 313 204 186 155 127 283 291 252 190 163 184 178
327 336 337 341 339 342 346 350 357 4 13 7 4 341 293 299 313 281 243 134 102 351 342 333 310 298 316 335 343 35 347 336 338 292 332 342 317 331 325 329 319 316 344 74 88 93 77 122 206 117 195 195 224 80 275 339 334 317 74 122 84 25 74 143 162 195 89 94 191 208 202 242 210 231 244 255 231 122 102 116 270 266 219 180 161 175 178
324 327 330 335 338 340 343 348 349 358 17 25 353 339 301 340 11 354 15 10 91 210 265 344 340 0 24 346 352 19 356 359 346 21 340 339 337 316 311 334 317 11 6 52 16 71 47 46 79 150 284 201 104 201 243 20 37 324 340 63 66 61 15 81 81 108 189 158 188 241 203 233 250 227 247 242 135 111 65 315 273 255 236 178 152 176 176
322 325 327 332 335 338 340 344 347 348 8 17 6 309 289 305 340 333 32 100 116 288 253 26 28 44 45 185 263 285 340 354 2 332 196 278 334 347 335 335 340 344 22 68 30 76 93 128 159 170 213 252 162 108 230 196 172 211 239 267 299 70 26 115 199 196 208 184 245 348 296 271 245 235 235 243 189 111 223 236 235 240 209 184 156 159 165
315 319 319 322 330 335 338 343 347 345 355 19 353 353 287 299 333 2 81 10 80 252 258 347 271 191 4 337 271 309 354 271 272 46 315 354 332 319 298 262 304 349 0 343 39 64 128 222 90 124 157 285 22 224 184 86 232 300 51 324 326 319 107 313 95 163 200 203 201 229 238 236 202 255 171 183 93 177 215 233 214 146 174 166 150 153 175
310 314 317 319 327 330 335 339 343 346 345 17 31 312 268 304 318 7 33 2 326 261 292 280 188 177 78 85 347 30 335 8 24 75 32 285 308 338 20 12 340 14 334 31 50 312 57 321 263 283 245 207 236 173 127 254 198 180 190 183 181 214 162 223 194 202 57 84 212 295 273 271 177 133 54 81 161 232 205 143 23 165 145 137 155 155 177
304 307 308 314 316 321 329 334 341 347 343 4 34 8 331 295 355 352 25 195 216 309 304 298 272 234 302 255 242 323 298 244 301 339 253 274 295 354 77 188 317 353 344 27 72 358 21 348 327 334 242 167 278 3 219 228 313 274 204 202 208 199 218 260 276 174 167 175 177 204 211 210 194 158 188 208 199 183 153 134 134 240 152 151 153 182 176
299 300 304 307 314 315 319 325 333 344 346 357 35 69 314 286 327 316 316 191 176 202 224 228 218 264 261 251 246 235 236 248 249 226 269 298 312 294 257 330 297 280 269 68 38 6 11 290 322 3 354 317 359 238 226 335 292 269 336 106 314 210 199 187 224 219 157 201 216 255 263 265 234 156 212 177 189 154 161 143 150 160 224 204 151 185 189
297 296 296 300 302 307 313 319 323 335 348 352 47 72 262 310 324 323 330 14 293 294 275 274 278 275 274 250 236 230 235 230 242 227 194 191 297 300 228 252 278 241 284 84 133 141 240 72 253 209 270 231 259 321 337 140 250 324 345 237 205 253 203 194 189 268 273 270 214 268 348 8 1 1 278 151 113 62 110 133 129 212 174 167 168 178 173
294 292 292 292 294 300 306 306 316 331 344 338 70 75 303 287 294 346 352 14 28 320 304 324 41 325 3 352 330 321 268 251 222 222 203 170 205 299 315 244 238 307 34 26 78 359 275 198 236 215 251 263 34 346 259 310 247 226 354 323 324 279 268 69 162 296 149 241 335 5 331 302 13 56 50 58 71 109 132 92 112 149 149 144 143 141 154
294 288 286 286 287 292 301 309 312 321 329 331 338 325 317 352 340 29 9 356 349 35 308 310 295 241 315 319 290 269 240 336 315 280 227 204 197 208 231 244 236 309 295 303 336 4 20 318 325 19 293 263 166 275 231 94 298 54 6 282 344 325 223 64 215 65 104 227 303 312 296 27 316 123 102 90 85 76 68 97 112 114 109 114 131 106 87
290 285 280 279 281 286 292 302 312 319 321 312 332 340 339 271 293 352 327 286 283 248 276 286 279 323 350 350 336 309 294 286 272 268 236 216 211 214 243 279 297 278 281 288 310 267 208 243 195 222 198 295 128 227 272 178 265 288 216 249 233 251 352 298 279 88 333 317 269 274 30 32 17 44 70 120 128 112 94 96 103 104 97 82 54 53 140
281 279 275 272 273 276 280 290 304 312 314 309 328 321 279 276 239 204 146 1 344 343 17 278 289 305 341 309 292 295 273 283 283 276 275 250 240 243 243 263 268 288 279 280 273 214 207 215 173 235 187 228 296 270 265 298 245 289 283 264 296 330 295 274 42 64 8 180 217 187 78 314 304 161 149 150 145 115 117 106 102 113 118 117 99 56 40
281 275 270 266 265 266 273 284 289 301 319 348 348 299 245 247 256 192 171 92 107 228 291 299 313 291 298 277 266 288 295 280 260 266 272 279 273 257 221 217 227 257 276 131 319 268 205 221 235 227 222 267 243 283 234 242 312 277 249 260 235 247 228 158 168 158 236 243 230 199 157 165 206 195 207 165 157 131 134 142 147 158 143 137 122 108 67
277 275 266 262 261 266 277 284 290 302 2 46 334 331 336 277 281 185 199 192 195 280 267 269 274 319 315 295 315 301 269 258 274 261 257 261 260 249 235 205 187 197 234 219 231 216 213 238 185 200 198 220 349 270 358 298 279 252 245 280 308 265 202 183 203 184 250 237 223 169 144 162 207 225 218 201 199 133 138 160 156 156 157 152 138 143 138
269 270 270 264 260 266 269 268 268 294 59 54 30 32 38 3 8 49 47 29 333 251 310 336 327 272 287 309 292 293 299 298 269 248 241 249 247 236 221 203 205 190 190 198 174 248 223 226 254 248 241 137 242 241 273 225 252 257 242 245 273 296 288 262 200 176 240 212 175 192 199 208 143 168 202 203 197 155 145 169 164 155 164 154 147 159 161
268 266 262 263 264 253 242 249 269 63 86 53 63 47 45 55 242 159 13 5 358 17 282 193 262 290 300 240 258 291 301 303 301 288 267 237 231 226 224 174 220 160 201 215 177 227 183 256 189 270 260 190 186 214 222 253 267 271 251 231 263 297 277 259 240 232 191 112 90 115 114 93 82 62 12 225 215 190 135 166 174 160 159 158 159 156 164
263 262 257 256 258 253 250 248 267 112 99 105 132 162 186 188 311 326 341 330 333 344 344 322 310 319 297 301 296 289 287 284 285 284 278 183 274 215 227 175 212 186 174 187 199 209 231 206 220 221 223 213 198 266 253 240 252 252 275 273 259 271 277 286 290 275 71 135 97 58 74 148 233 164 193 209 207 208 153 154 160 149 146 140 133 130 143
257 255 252 252 250 248 254 256 259 133 166 225 241 261 271 274 276 281 315 305 12 243 253 348 276 300 286 287 314 308 290 338 358 359 324 212 246 145 259 204 196 270 211 186 237 203 222 183 185 219 233 179 218 241 247 245 247 257 273 284 280 257 262 263 273 306 235 213 164 160 190 199 213 230 280 119 82 103 117 119 117 92 87 93 99 99 92
252 249 241 234 235 234 239 224 75 60 41 25 328 284 245 242 260 275 230 166 174 262 23 330 323 319 284 321 354 282 358 2 305 351 338 291 227 138 234 15 221 170 250 175 244 220 294 248 227 230 239 230 200 237 251 248 246 255 261 275 284 282 276 280 277 270 255 239 278 273 205 177 99 103 96 103 95 80 95 92 106 86 71 81 81 106 129
241 237 226 208 204 205 218 133 60 44 288 254 259 265 262 249 229 198 153 138 77 358 46 302 250 324 313 340 325 280 314 340 354 323 299 279 345 237 286 65 326 122 276 188 286 199 229 223 160 198 237 194 192 235 241 255 275 257 247 250 255 268 285 290 274 242 242 233 208 156 143 139 132 133 139 130 121 126 106 85 112 116 96 82 94 94 117
232 217 206 176 150 130 196 118 124 179 251 224 230 254 263 287 268 186 180 184 121 140 28 288 144 237 245 299 301 292 353 350 312 318 284 289 330 290 272 174 330 240 221 156 224 198 211 233 153 247 161 205 230 229 250 277 269 253 235 237 240 235 238 245 256 257 263 208 160 147 143 142 135 145 131 133 131 127 124 115 92 98 113 112 112 95 79
188 191 192 142 128 109 128 226 229 197 216 189 220 289 299 290 99 96 111 112 324 357 180 182 225 232 219 258 289 283 358 349 334 353 327 1 309 299 351 21 238 272 11 323 256 193 243 215 209 246 231 235 251 231 241 248 256 267 260 250 250 249 253 261 243 189 137 135 142 147 145 134 128 136 136 143 146 145 132 137 150 140 137 144 145 134 140
182 188 167 143 118 134 225 235 214 232 219 232 260 329 2 49 78 178 82 42 223 170 265 151 252 254 47 43 268 254 20 296 25 2 312 279 336 310 339 33 252 7 321 292 259 206 155 128 218 229 250 243 252 250 241 242 241 243 250 250 251 253 254 253 168 142 133 96 68 107 105 129 143 176 153 162 159 154 151 146 146 135 130 136 139 135 128
169 173 166 160 138 178 194 231 263 199 116 89 108 89 240 168 77 299 193 197 165 193 192 162 239 178 182 230 262 4 164 288 348 296 272 286 41 308 5 33 299 45 305 11 292 28 313 287 247 237 255 257 266 269 248 246 246 244 243 243 241 245 246 215 177 179 174 182 182 180 162 168 170 189 176 143 137 122 135 134 125 123 119 119 125 133 125
166 176 158 142 207 215 226 12 6 120 133 88 204 120 143 163 117 225 128 156 238 226 165 237 195 194 192 210 235 310 179 131 168 267 229 299 223 182 265 49 265 81 257 164 252 352 278 272 273 275 265 297 258 258 250 244 248 248 243 244 242 243 240 210 202 212 213 203 186 185 186 171 160 154 161 152 147 139 136 135 140 132 133 144 154 144 154
166 153 140 197 183 207 37 34 19 2 134 120 75 202 178 221 210 206 165 214 202 227 187 182 151 233 226 216 199 249 277 211 231 171 185 252 261 28 33 252 246 40 250 232 276 313 273 259 239 245 258 301 310 303 294 282 266 260 253 249 245 242 235 217 208 201 190 140 130 140 139 135 135 140 145 145 142 143 149 150 149 151 145 142 144 155 155
177 145 149 116 97 85 117 70 46 147 14 120 120 226 194 233 198 208 158 158 233 217 228 167 204 194 223 198 197 174 264 215 221 198 141 300 288 158 231 283 344 219 250 236 245 271 257 255 255 261 269 301 306 317 318 303 289 275 264 254 251 248 237 211 194 192 176 161 149 129 119 124 128 131 138 137 141 143 142 139 139 148 151 156 142 132 133
67 85 94 80 53 35 83 57 253 145 126 17 43 359 233 186 210 180 240 217 279 172 255 179 220 179 41 117 226 196 205 145 176 298 83 237 315 32 103 288 43 288 244 281 353 237 233 241 261 260 273 280 289 313 324 321 311 301 287 271 245 221 191 176 167 155 157 146 137 129 128 125 130 139 138 130 125 124 132 149 152 149 154 149 144 136 127
105 22 77 38 83 271 105 220 206 151 186 170 138 184 176 267 288 222 241 258 217 245 230 162 242 134 221 273 168 214 45 342 36 88 266 244 87 305 234 235 228 247 283 303 237 234 241 241 246 265 267 290 309 331 341 345 343 328 347 347 355 122 122 120 119 115 109 107 107 114 116 122 121 114 125 141 144 141 147 143 149 143 144 132 120 119 127
87 57 46 58 134 244 152 187 152 217 180 195 200 212 178 195 218 176 200 238 136 222 204 102 116 145 212 210 37 338 128 194 316 127 246 179 265 250 216 255 250 6 222 250 270 289 299 263 270 272 296 306 307 323 339 1 1 337 314 48 23 8 72 120 123 119 122 123 125 125 125 132 134 141 145 144 148 144 141 147 157 141 133 119 117 115 119
116 133 116 145 165 242 220 130 116 219 253 178 206 199 194 224 169 223 242 205 206 165 162 212 176 192 284 178 147 219 198 101 53 237 219 86 163 252 238 276 61 335 278 231 249 244 238 243 255 262 251 275 321 338 334 8 17 354 320 14 68 48 357 343 114 128 131 130 132 129 136 141 141 140 137 139 136 135 131 140 145 137 130 121 125 127 122
84 144 119 211 134 180 184 193 209 207 180 201 208 187 211 218 212 220 241 248 190 205 161 149 140 168 172 225 64 340 12 102 189 246 104 133 212 256 329 90 249 205 214 235 232 244 251 246 248 248 253 32 360 332 355 21 32 2 308 327 59 67 59 6 330 330 116 121 118 118 120 121 119 120 120 109 94 103 115 118 117 122 125 127 129 124 120
140 192 131 172 204 175 185 238 217 285 271 211 218 201 224 213 284 259 270 80 142 90 106 105 76 1 316 290 179 225 218 173 225 262 200 227 262 250 268 230 234 234 212 220 238 224 239 248 256 293 11 128 157 262 328 14 28 344 298 317 35 71 80 59 9 340 344 51 90 97 109 114 117 116 114 116 110 97 106 111 109 104 105 111 116 121 122
118 169 178 207 201 169 210 210 149 233 264 270 230 202 207 213 222 204 212 94 97 133 157 120 158 114 252 184 174 222 246 190 220 248 190 209 219 223 202 234 220 239 229 227 256 247 253 285 303 290 116 94 57 337 6 18 333 258 290 310 15 59 64 115 210 210 245 221 120 119 113 113 113 110 112 111 114 113 101 103 105 107 119 127 127 124 122
98 324 3 77 12 301 260 92 109 255 291 305 318 242 175 154 187 246 190 144 176 118 65 25 354 163 241 149 262 235 241 207 217 251 239 228 213 232 229 251 222 231 264 225 238 272 316 311 306 10 89 108 112 112 36 3 351 356 338 339 52 108 125 120 93 321 294 266 118 124 129 128 127 130 135 137 133 119 103 97 106 115 117 122 125 126 130
288 157 234 197 163 212 154 186 201 220 273 260 219 241 190 212 189 215 211 135 141 73 60 174 183 136 215 211 189 243 239 175 233 225 226 227 194 219 225 246 249 215 239 254 260 314 323 303 309 302 93 81 90 100 98 171 136 27 6 4 4 47 84 119 153 237 236 190 129 124 129 136 136 125 117 111 111 106 97 95 103 116 122 120 123 129 130
100 215 262 256 219 229 234 244 255 230 234 245 249 243 183 257 226 226 160 113 112 127 218 207 190 174 179 220 213 227 339 198 241 220 229 231 206 219 222 223 260 282 285 288 294 350 347 309 317 339 29 89 97 85 100 63 43 26 39 19 11 34 11 195 206 201 162 90 75 96 95 100 105 103 106 104 104 106 112 121 126 123 113 108 99 102 113